Location: Unspecified
(58.9933°N, 5.6375°E)
Time: 21:43:41
(UTC+02:00)

Cosmos 1674 - Visible Passes

Search period start: 23 August 2017 00:00
Search period end: 02 September 2017 00:00
Orbit: 499 x 521 km, 82.5° (Epoch: 23 August)

Date Brightness Start Highest point End Pass type
(mag) Time Alt. Az. Time Alt. Az. Time Alt. Az.
23 Aug 3.4 00:55:19 10° N 00:59:05 45° ENE 01:00:07 35° ESE visible
23 Aug 4.0 02:31:15 10° NNW 02:34:32 26° W 02:35:00 26° WSW visible
24 Aug 3.7 00:38:42 10° N 00:42:22 38° ENE 00:43:25 31° ESE visible
24 Aug 3.8 02:14:28 10° NNW 02:17:55 31° W 02:18:19 30° WSW visible
25 Aug 3.9 00:22:05 10° N 00:25:38 32° ENE 00:26:44 27° E visible
25 Aug 3.5 01:57:42 10° NNW 02:01:18 37° W 02:01:37 36° WSW visible
26 Aug 4.1 00:05:29 10° N 00:08:54 28° ENE 00:10:04 24° E visible
26 Aug 3.3 01:40:58 10° NNW 01:44:40 44° W 01:44:57 43° WSW visible
26 Aug 4.3 23:48:55 10° N 23:52:08 24° ENE 23:53:23 20° E visible
27 Aug 3.0 01:24:14 10° NNW 01:28:01 53° W 01:28:17 51° WSW visible
27 Aug 4.5 23:32:20 10° N 23:35:22 21° ENE 23:36:44 18° E visible
28 Aug 2.7 01:07:31 10° NNW 01:11:22 64° W 01:11:37 62° WSW visible
28 Aug 5.3 02:45:38 10° WNW 02:46:10 10° WNW 02:46:30 10° W visible
28 Aug 4.7 23:15:48 10° NNE 23:18:35 18° ENE 23:20:04 15° E visible
29 Aug 2.6 00:50:50 10° NNW 00:54:42 77° W 00:54:58 72° SW visible
29 Aug 5.1 02:28:03 10° NW 02:29:36 12° W 02:29:51 12° W visible
29 Aug 4.8 22:59:17 10° NNE 23:01:47 16° NE 23:03:25 13° E visible
30 Aug 2.5 00:34:08 10° NNW 00:38:01 89° E 00:38:19 76° SSE visible
30 Aug 5.0 02:10:56 10° NW 02:13:02 14° W 02:13:12 14° W visible
30 Aug 5.0 22:42:50 10° NNE 22:44:59 14° NE 22:46:47 11° E visible
31 Aug 2.6 00:17:27 10° N 00:21:20 75° ENE 00:21:41 68° ESE visible
31 Aug 4.8 01:53:57 10° NW 01:56:27 17° W 01:56:34 17° W visible
31 Aug 5.1 22:26:28 10° NNE 22:28:10 12° NE 22:29:51 10° ENE visible
01 Sep 2.7 00:00:47 10° N 00:04:37 62° ENE 00:05:02 57° ESE visible
01 Sep 4.6 01:37:03 10° NW 01:39:52 20° W 01:39:56 20° W visible
01 Sep 5.1 22:10:17 10° NNE 22:11:20 11° NE 22:12:23 10° ENE visible
01 Sep 3.0 23:44:07 10° N 23:47:55 52° ENE 23:48:25 48° E visible
